Location: Aulnoy
(48.8410°N, 3.0967°E)
Time: 23:07:19
(UTC+00:00)

Cosmos 1943 Rocket - Pass Details

Date: 09 February 2023
Orbit: 811 x 844 km, 71.0° (Epoch: 21 March)

Event Time Altitude Azimuth Distance (km) Brightness Sun altitude
Rises 20:23:23 0° 328° (NNW) 3,413 6.0 -33.9°
Reaches altitude 10° 20:25:55 10° 323° (NW) 2,473 5.2 -34.3°
Enters shadow 20:30:04 41° 288° (WNW) 1,199 3.3 -35.0°
